User: anonymous   Login
Location: Theodore Roosevelt National Park
(46.9990°N, 103.4631°W)
Time: 05:21:41
(UTC-07:00)
Language:

Cosmos 2219 Rocket - Orbit

View from above orbital plane
View from above orbital plane
View from above satellite
View from above satellite

Ground track
Ground track

The orbit data is extracted from the following two-line orbital elements,

1 22220U 92076B   17056.88701894 -.00000204  00000-0 -78349-4 0  9999
2 22220  71.0000 293.5318 0010511  81.0430 355.4540 14.16411885255011
Epoch (UTC): 25 February 2017 21:17:18
Eccentricity: 0.0010511
inclination: 71.0000°
perigee height: 830 km
apogee height: 845 km
right ascension of ascending node: 293.5318°
argument of perigee: 81.0430°
revolutions per day: 14.16411885
mean anomaly at epoch: 355.4540°
orbit number at epoch: 25501

The dashed part of the orbit path shows where the satellite is in the earth's shadow,  

DLR